{"data":{"norad_id":64437,"intl_designator":"2025-129AB","name":"STARLINK-34507","alt_names":[],"object_type":"PAYLOAD","status":"ACTIVE","operator":null,"country":"US","launch_date":"2025-06-17","launch_site_code":"AFWTR","launch_vehicle":null,"mission":null,"orbit_class":"UNKNOWN","rcs_meters":null,"size_class":null,"mass_kg":null,"dimensions":null,"purposes":["comms"],"wikipedia_slug":null,"has_3d_model":false,"image_url":null,"decayed_at":null,"tle_current":{"epoch":"2026-09-20T12:41:44.145024Z","epoch_age_seconds":131756,"freshness":"FRESH","line1":"1 64437U 25129AB  26263.52898316  .00007161  00000+0  25325-3 0  9998","line2":"2 64437  70.0002 300.7498 0003913 280.6154  79.4580 15.29587751 70536","mean_motion":15.29587751,"eccentricity":0.0003913,"inclination_deg":70.0002,"raan_deg":300.7498,"arg_perigee_deg":280.6154,"mean_anomaly_deg":79.458,"bstar":0.00025325,"rev_number":7053,"period_min":94.143013309212,"perigee_km":474.36131208961,"apogee_km":479.72617654012,"semimajor_km":6855.1807443149,"source":"CELESTRAK","updated_at":"2026-09-21T09:00:35.351712Z"}}}